TimePST,TemperatureF,Dew PointF,Humidity,Sea Level PressureIn,VisibilityMPH,Wind Direction,Wind SpeedMPH,Gust SpeedMPH,PrecipitationIn,Events,Conditions,WindDirDegrees,DateUTC
12:53 AM,26.1,19.9,78,30.17,10.0,Calm,Calm,-,N/A,,Clear,0,2012-12-11 08:53:00
1:53 AM,25.0,19.9,81,30.17,9.0,Calm,Calm,-,N/A,,Clear,0,2012-12-11 09:53:00
2:53 AM,26.1,19.0,75,30.14,10.0,SSW,4.6,-,N/A,,Clear,210,2012-12-11 10:53:00
3:53 AM,25.0,19.0,78,30.15,10.0,South,3.5,-,N/A,,Clear,170,2012-12-11 11:53:00
4:53 AM,24.1,19.0,81,30.15,10.0,South,3.5,-,N/A,,Clear,180,2012-12-11 12:53:00
5:53 AM,23.0,18.0,81,30.15,10.0,Variable,4.6,-,N/A,,Clear,0,2012-12-11 13:53:00
6:53 AM,21.9,17.1,82,30.16,10.0,South,3.5,-,N/A,,Clear,190,2012-12-11 14:53:00
7:53 AM,21.9,17.1,82,30.16,10.0,Calm,Calm,-,N/A,,Clear,0,2012-12-11 15:53:00
8:53 AM,28.9,21.0,72,30.12,10.0,Calm,Calm,-,N/A,,Clear,0,2012-12-11 16:53:00
9:53 AM,48.9,16.0,27,30.04,10.0,SSW,15.0,-,N/A,,Clear,200,2012-12-11 17:53:00
10:53 AM,51.1,14.0,23,30.00,10.0,South,15.0,-,N/A,,Clear,180,2012-12-11 18:53:00
11:53 AM,53.1,10.9,19,29.96,10.0,SSW,10.4,20.7,N/A,,Clear,200,2012-12-11 19:53:00
12:53 PM,53.1,9.0,17,29.91,10.0,SSW,10.4,19.6,N/A,,Clear,200,2012-12-11 20:53:00
1:53 PM,53.1,14.0,21,29.88,10.0,South,16.1,24.2,N/A,,Clear,190,2012-12-11 21:53:00
2:53 PM,50.0,15.1,25,29.86,10.0,SSW,10.4,20.7,N/A,,Clear,200,2012-12-11 22:53:00
3:53 PM,46.0,18.0,33,29.86,10.0,South,8.1,17.3,N/A,,Clear,190,2012-12-11 23:53:00
4:53 PM,44.1,23.0,43,29.84,10.0,SSW,11.5,23.0,N/A,,Clear,200,2012-12-12 00:53:00
5:53 PM,42.1,21.0,43,29.81,10.0,South,11.5,20.7,N/A,,Clear,180,2012-12-12 01:53:00
6:53 PM,42.1,19.0,40,29.77,10.0,SSW,23.0,46.0,N/A,,Partly Cloudy,210,2012-12-12 02:53:00
7:53 PM,41.0,21.9,47,29.77,10.0,SW,13.8,28.8,N/A,,Scattered Clouds,220,2012-12-12 03:53:00
8:53 PM,39.9,25.0,55,29.74,10.0,SSW,20.7,36.8,N/A,,Clear,210,2012-12-12 04:53:00
9:53 PM,39.9,23.0,51,29.65,10.0,SSW,18.4,28.8,N/A,,Overcast,210,2012-12-12 05:53:00
10:53 PM,39.0,21.9,50,29.67,10.0,South,15.0,39.1,0.00,,Overcast,190,2012-12-12 06:53:00
11:32 PM,37.4,23.0,56,29.75,2.5,SSW,16.1,29.9,0.00,Snow,Light Snow,210,2012-12-12 07:32:00
11:35 PM,35.6,23.0,60,29.74,1.5,SSW,17.3,29.9,0.00,Snow,Light Snow,200,2012-12-12 07:35:00
11:48 PM,35.6,24.8,65,29.74,3.0,SSW,13.8,33.4,0.00,Snow,Light Snow,200,2012-12-12 07:48:00
11:53 PM,36.0,23.0,59,29.63,4.0,SSW,18.4,33.4,0.00,Snow,Light Snow,200,2012-12-12 07:53:00